This demonstration page uses our WeatherBlox Daily Observations layout. Learn more.

38.89511, -77.03637

Hourly Observations for December 15, 2016

Temp ( °F °C ) Dew Point ( °F °C ) Humidity (%) Winds ( mph kmh ) Pressure ( in mb ) Visibility ( mi km ) Precip ( " mm )
12:52 am 00:52 Cloudy 39 3.9 17 -8.3 41 41 N 7 11 29.92 1013 10 16.0934 0 0
1:52 am 01:52 Cloudy 39 3.9 16 -8.9 39 39 NW 7 11 29.91 1013 10 16.0934 0 0
2:52 am 02:52 Cloudy 38 3.3 21 -6.1 51 51 NW 13 20 29.91 1013 10 16.0934 0 0
3:52 am 03:52 Mostly Cloudy 37 2.8 19 -7.2 48 48 WNW 15 24 29.91 1013 10 16.0934 0 0
4:52 am 04:52 Partly Cloudy 35 1.7 10 -12.2 35 35 NW 24 39 29.92 1013 10 16.0934 0 0
5:52 am 05:52 Mostly Clear 32 0 7 -13.9 35 35 NW 21 33 29.97 1015 10 16.0934 0 0
6:52 am 06:52 Mostly Clear 29 -1.7 -2 -18.9 26 26 NW 28 44 30 1016 10 16.0934 0 0
7:52 am 07:52 Mostly Sunny 28 -2.2 -2 -18.9 27 27 NW 24 39 30.05 1018 10 16.0934 0 0
8:52 am 08:52 Mostly Sunny 26 -3.3 -6 -21.1 24 24 WNW 20 31 30.1 1019 10 16.0934 0 0
9:52 am 09:52 Mostly Sunny 25 -3.9 -3 -19.4 29 29 WNW 21 33 30.12 1020 10 16.0934 0 0
10:52 am 10:52 Mostly Sunny 26 -3.3 -6 -21.1 24 24 WNW 21 33 30.14 1021 10 16.0934 0 0
11:52 am 11:52 Mostly Sunny 26 -3.3 -7 -21.7 23 23 NW 23 37 30.13 1020 10 16.0934 0 0
12:52 pm 12:52 Mostly Sunny 26 -3.3 -8 -22.2 22 22 WNW 21 33 30.15 1021 10 16.0934 0 0
1:52 pm 13:52 Mostly Sunny 26 -3.3 -8 -22.2 22 22 NW 31 50 30.16 1021 10 16.0934 0 0
2:52 pm 14:52 Partly Cloudy 25 -3.9 -8 -22.2 23 23 WNW 22 35 30.2 1023 10 16.0934 0 0
3:52 pm 15:52 Mostly Sunny 23 -5 -9 -22.8 24 24 WNW 17 28 30.24 1024 10 16.0934 0 0
4:52 pm 16:52 Mostly Clear 22 -5.6 -8 -22.2 26 26 WNW 21 33 30.29 1026 10 16.0934 0 0
5:52 pm 17:52 Mostly Clear 21 -6.1 -7 -21.7 28 28 NW 15 24 30.33 1027 10 16.0934 0 0
6:52 pm 18:52 Clear 20 -6.7 -7 -21.7 29 29 NW 10 17 30.35 1028 10 16.0934 0 0
7:52 pm 19:52 Clear 20 -6.7 -6 -21.1 31 31 WNW 15 24 30.37 1029 10 16.0934 0 0
8:52 pm 20:52 Clear 19 -7.2 -6 -21.1 32 32 WNW 9 15 30.39 1029 10 16.0934 0 0
9:52 pm 21:52 Clear 19 -7.2 -6 -21.1 32 32 W 9 15 30.4 1030 10 16.0934 0 0
10:52 pm 22:52 Clear 19 -7.2 -6 -21.1 32 32 W 9 15 30.41 1030 10 16.0934 0 0
11:52 pm 23:52 Clear 18 -7.8 -5 -20.6 35 35 W 9 15 30.42 1030 10 16.0934 0 0

Powered by AerisWeather